Terug naar catalogus

STARLINK-30447

ActiefCommunicatieVLEO
NORAD 57874·PAYLOAD·🇺🇸 United States

Gelanceerd Sep 16, 2023 vanaf Cape Canaveral Space Force Station

Loading…

Volgende Passages (komende 24 uur)

TLE

VersSource: CelesTrak SupGP

Epoch: Sep 14, 2026, 21:24 UTC

1 57874C 23144L   26257.89215278  .00018156  00000+0  65778-3 0  2572
2 57874  42.9994 270.9413 0001279 284.5794 270.0700 15.27560368    14

Volg STARLINK-30447 in realtime met AllMySat

Download on the App Store